Location: Godzisko
(49.9648°N, 19.4576°E)
Time: 07:57:06
(UTC+00:00)

Cosmos 2084 - Pass Details

Date: 20 April 2021
Orbit: 546 x 635 km, 62.8° (Epoch: 07 May)

Event Time Altitude Azimuth Distance (km) Brightness Sun altitude
Exits shadow 01:24:02 27° 164° (SSE) 1,102 4.5 -18.9°
Maximum altitude 01:25:29 35° 123° (ESE) 920 4.5 -18.8°
Drops below altitude 10° 01:29:23 10° 57° (ENE) 1,894 7.2 -18.3°
Sets 01:31:47 0° 49° (NE) 2,813 8.7 -18.1°
